Time,TemperatureF,DewpointF,PressureIn,WindDirection,WindDirectionDegrees,WindSpeedMPH,WindSpeedGustMPH,Humidity,HourlyPrecipIn,Conditions,Clouds,dailyrainin,SoftwareType,DateUTC
2013-02-18 00:00:00,24.0,14.3,30.18,NE,52,0.0,18.0,66,0.00,,,0.00,Wunderground v.1.15,2013-02-18 05:00:00,
2013-02-18 00:05:00,23.8,14.4,30.18,NE,52,0.0,18.0,67,0.00,,,0.00,Wunderground v.1.15,2013-02-18 05:05:00,
2013-02-18 00:15:00,23.8,14.1,30.18,NE,52,0.0,18.0,66,0.00,,,0.00,Wunderground v.1.15,2013-02-18 05:15:00,
2013-02-18 00:20:00,23.8,14.8,30.18,NE,52,0.0,18.0,68,0.00,,,0.00,Wunderground v.1.15,2013-02-18 05:20:00,
2013-02-18 00:25:00,23.7,14.7,30.18,NE,52,0.0,18.0,68,0.00,,,0.00,Wunderground v.1.15,2013-02-18 05:25:00,
2013-02-18 00:35:00,23.9,14.9,30.19,NE,52,0.0,18.0,68,0.00,,,0.00,Wunderground v.1.15,2013-02-18 05:35:00,
2013-02-18 00:45:00,24.4,15.7,30.19,NE,40,1.0,18.0,69,0.00,,,0.00,Wunderground v.1.15,2013-02-18 05:45:00,
2013-02-18 00:55:00,24.3,14.6,30.19,NE,40,0.0,18.0,66,0.00,,,0.00,Wunderground v.1.15,2013-02-18 05:55:00,
2013-02-18 01:05:00,24.0,14.6,30.19,NE,40,0.0,18.0,67,0.00,,,0.00,Wunderground v.1.15,2013-02-18 06:05:00,
2013-02-18 01:10:00,23.9,14.5,30.19,NE,40,0.0,18.0,67,0.00,,,0.00,Wunderground v.1.15,2013-02-18 06:10:00,
2013-02-18 01:20:00,23.9,14.2,30.19,NE,40,0.0,18.0,66,0.00,,,0.00,Wunderground v.1.15,2013-02-18 06:20:00,
2013-02-18 01:30:00,23.9,14.5,30.19,NE,40,0.0,18.0,67,0.00,,,0.00,Wunderground v.1.15,2013-02-18 06:30:00,
2013-02-18 01:40:00,23.5,14.1,30.20,NE,40,0.0,18.0,67,0.00,,,0.00,Wunderground v.1.15,2013-02-18 06:40:00,
2013-02-18 01:50:00,23.3,15.0,30.20,NE,40,0.0,18.0,70,0.00,,,0.00,Wunderground v.1.15,2013-02-18 06:50:00,
2013-02-18 02:00:00,22.9,15.2,30.21,NE,37,0.0,18.0,72,0.00,,,0.00,Wunderground v.1.15,2013-02-18 07:00:00,
2013-02-18 02:10:00,22.5,15.1,30.21,NE,38,0.0,18.0,73,0.00,,,0.00,Wunderground v.1.15,2013-02-18 07:10:00,
2013-02-18 02:20:00,22.4,14.4,30.21,NE,38,0.0,18.0,71,0.00,,,0.00,Wunderground v.1.15,2013-02-18 07:20:00,
2013-02-18 02:30:00,22.1,13.8,30.21,NE,38,0.0,18.0,70,0.00,,,0.00,Wunderground v.1.15,2013-02-18 07:30:00,
2013-02-18 02:35:00,22.1,14.4,30.21,NE,38,0.0,18.0,72,0.00,,,0.00,Wunderground v.1.15,2013-02-18 07:35:00,
2013-02-18 02:45:00,22.0,14.3,30.22,NE,38,0.0,18.0,72,0.00,,,0.00,Wunderground v.1.15,2013-02-18 07:45:00,
2013-02-18 02:55:00,21.7,14.4,30.22,NE,38,0.0,18.0,73,0.00,,,0.00,Wunderground v.1.15,2013-02-18 07:55:00,
2013-02-18 03:05:00,21.3,14.6,30.22,NE,38,0.0,18.0,75,0.00,,,0.00,Wunderground v.1.15,2013-02-18 08:05:00,
2013-02-18 03:15:00,21.1,15.0,30.22,NE,38,0.0,18.0,77,0.00,,,0.00,Wunderground v.1.15,2013-02-18 08:15:00,
2013-02-18 03:25:00,20.7,14.3,30.22,NE,38,0.0,18.0,76,0.00,,,0.00,Wunderground v.1.15,2013-02-18 08:25:00,
2013-02-18 03:35:00,20.3,14.2,30.22,NE,38,0.0,18.0,77,0.00,,,0.00,Wunderground v.1.15,2013-02-18 08:35:00,
2013-02-18 03:45:00,20.3,14.5,30.22,NE,38,0.0,18.0,78,0.00,,,0.00,Wunderground v.1.15,2013-02-18 08:45:00,
2013-02-18 03:55:00,20.3,14.8,30.22,NE,38,0.0,18.0,79,0.00,,,0.00,Wunderground v.1.15,2013-02-18 08:55:00,
2013-02-18 04:00:00,20.3,14.5,30.22,NE,38,0.0,18.0,78,0.00,,,0.00,Wunderground v.1.15,2013-02-18 09:00:00,
2013-02-18 04:10:00,20.1,14.6,30.23,NE,38,0.0,18.0,79,0.00,,,0.00,Wunderground v.1.15,2013-02-18 09:10:00,
2013-02-18 04:20:00,19.9,14.4,30.23,NE,38,0.0,18.0,79,0.00,,,0.00,Wunderground v.1.15,2013-02-18 09:20:00,
2013-02-18 04:30:00,19.8,14.6,30.24,NE,38,0.0,18.0,80,0.00,,,0.00,Wunderground v.1.15,2013-02-18 09:30:00,
2013-02-18 04:40:00,19.8,14.9,30.24,NE,38,0.0,18.0,81,0.00,,,0.00,Wunderground v.1.15,2013-02-18 09:40:00,
2013-02-18 04:50:00,19.5,14.6,30.25,NE,38,0.0,18.0,81,0.00,,,0.00,Wunderground v.1.15,2013-02-18 09:50:00,
2013-02-18 05:00:00,19.5,14.6,30.25,NE,38,0.0,18.0,81,0.00,,,0.00,Wunderground v.1.15,2013-02-18 10:00:00,
2013-02-18 05:05:00,19.5,14.9,30.25,NE,38,0.0,18.0,82,0.00,,,0.00,Wunderground v.1.15,2013-02-18 10:05:00,
2013-02-18 05:15:00,19.3,14.7,30.25,NE,38,0.0,18.0,82,0.00,,,0.00,Wunderground v.1.15,2013-02-18 10:15:00,
2013-02-18 05:25:00,19.3,14.7,30.26,NE,38,0.0,18.0,82,0.00,,,0.00,Wunderground v.1.15,2013-02-18 10:25:00,
2013-02-18 05:35:00,19.2,14.6,30.25,NE,38,0.0,18.0,82,0.00,,,0.00,Wunderground v.1.15,2013-02-18 10:35:00,
2013-02-18 05:40:00,19.2,14.6,30.26,NE,38,0.0,18.0,82,0.00,,,0.00,Wunderground v.1.15,2013-02-18 10:40:00,
2013-02-18 05:50:00,19.0,14.4,30.26,NE,38,0.0,18.0,82,0.00,,,0.00,Wunderground v.1.15,2013-02-18 10:50:00,
2013-02-18 05:55:00,18.9,14.6,30.27,NE,38,0.0,18.0,83,0.00,,,0.00,Wunderground v.1.15,2013-02-18 10:55:00,
2013-02-18 06:05:00,18.9,14.6,30.27,NE,38,0.0,18.0,83,0.00,,,0.00,Wunderground v.1.15,2013-02-18 11:05:00,
2013-02-18 06:15:00,18.9,14.6,30.27,NE,38,0.0,18.0,83,0.00,,,0.00,Wunderground v.1.15,2013-02-18 11:15:00,
2013-02-18 06:25:00,19.1,14.5,30.27,NE,38,0.0,18.0,82,0.00,,,0.00,Wunderground v.1.15,2013-02-18 11:25:00,
2013-02-18 06:35:00,19.2,14.6,30.27,NE,38,0.0,18.0,82,0.00,,,0.00,Wunderground v.1.15,2013-02-18 11:35:00,
2013-02-18 06:45:00,19.2,14.6,30.27,NE,38,0.0,18.0,82,0.00,,,0.00,Wunderground v.1.15,2013-02-18 11:45:00,
2013-02-18 06:55:00,19.1,14.8,30.28,NE,38,0.0,18.0,83,0.00,,,0.00,Wunderground v.1.15,2013-02-18 11:55:00,
2013-02-18 07:00:00,19.1,14.8,30.28,NE,38,0.0,18.0,83,0.00,,,0.00,Wunderground v.1.15,2013-02-18 12:00:00,
2013-02-18 07:10:00,18.9,14.6,30.28,NE,38,0.0,18.0,83,0.00,,,0.00,Wunderground v.1.15,2013-02-18 12:10:00,
2013-02-18 07:20:00,18.9,14.9,30.28,NE,38,0.0,18.0,84,0.00,,,0.00,Wunderground v.1.15,2013-02-18 12:20:00,
2013-02-18 07:25:00,18.9,14.9,30.28,NE,38,0.0,18.0,84,0.00,,,0.00,Wunderground v.1.15,2013-02-18 12:25:00,
2013-02-18 07:35:00,19.1,15.3,30.28,NE,38,0.0,18.0,85,0.00,,,0.00,Wunderground v.1.15,2013-02-18 12:35:00,
2013-02-18 07:45:00,19.4,15.6,30.29,NE,38,0.0,18.0,85,0.00,,,0.00,Wunderground v.1.15,2013-02-18 12:45:00,
2013-02-18 07:55:00,19.8,16.0,30.29,NE,38,0.0,18.0,85,0.00,,,0.00,Wunderground v.1.15,2013-02-18 12:55:00,
2013-02-18 08:00:00,20.1,16.6,30.29,NE,38,0.0,0.0,86,0.00,,,0.00,Wunderground v.1.15,2013-02-18 13:00:00,
2013-02-18 08:10:00,21.3,17.5,30.29,NE,38,0.0,0.0,85,0.00,,,0.00,Wunderground v.1.15,2013-02-18 13:10:00,
2013-02-18 08:20:00,23.4,19.0,30.29,NE,38,0.0,0.0,83,0.00,,,0.00,Wunderground v.1.15,2013-02-18 13:20:00,
2013-02-18 08:30:00,25.1,19.5,30.29,NE,38,0.0,0.0,79,0.00,,,0.00,Wunderground v.1.15,2013-02-18 13:30:00,
2013-02-18 08:35:00,25.7,19.5,30.30,NE,38,0.0,0.0,77,0.00,,,0.00,Wunderground v.1.15,2013-02-18 13:35:00,
2013-02-18 08:45:00,26.6,20.1,30.30,NE,38,0.0,0.0,76,0.00,,,0.00,Wunderground v.1.15,2013-02-18 13:45:00,
2013-02-18 08:55:00,28.1,18.9,30.29,NE,38,0.0,0.0,68,0.00,,,0.00,Wunderground v.1.15,2013-02-18 13:55:00,
2013-02-18 09:00:00,29.0,18.3,30.30,NE,38,0.0,0.0,64,0.00,,,0.00,Wunderground v.1.15,2013-02-18 14:00:00,
2013-02-18 09:10:00,30.7,20.0,30.30,NE,38,0.0,0.0,64,0.00,,,0.00,Wunderground v.1.15,2013-02-18 14:10:00,
2013-02-18 09:21:00,32.5,20.1,30.30,NE,38,0.0,0.0,60,0.00,,,0.00,Wunderground v.1.15,2013-02-18 14:21:00,
2013-02-18 09:35:00,34.5,19.5,30.30,NE,38,0.0,0.0,54,0.00,,,0.00,Wunderground v.1.15,2013-02-18 14:35:00,
2013-02-18 09:45:00,35.3,19.4,30.30,NE,41,0.0,0.0,52,0.00,,,0.00,Wunderground v.1.15,2013-02-18 14:45:00,
2013-02-18 09:55:00,36.2,19.3,30.30,NE,41,0.0,0.0,50,0.00,,,0.00,Wunderground v.1.15,2013-02-18 14:55:00,
2013-02-18 10:00:00,37.0,18.1,30.30,NE,41,0.0,0.0,46,0.00,,,0.00,Wunderground v.1.15,2013-02-18 15:00:00,
2013-02-18 10:10:00,37.9,17.4,30.30,NE,41,0.0,0.0,43,0.00,,,0.00,Wunderground v.1.15,2013-02-18 15:10:00,
2013-02-18 10:20:00,38.9,18.3,30.30,NE,36,0.0,0.0,43,0.00,,,0.00,Wunderground v.1.15,2013-02-18 15:20:00,
2013-02-18 10:30:00,40.2,18.9,30.30,NE,35,0.0,0.0,42,0.00,,,0.00,Wunderground v.1.15,2013-02-18 15:30:00,
2013-02-18 10:40:00,41.0,18.5,30.29,WNW,294,0.0,0.0,40,0.00,,,0.00,Wunderground v.1.15,2013-02-18 15:40:00,
2013-02-18 10:50:00,41.6,19.6,30.29,WSW,238,0.0,0.0,41,0.00,,,0.00,Wunderground v.1.15,2013-02-18 15:50:00,
2013-02-18 11:00:00,42.6,18.7,30.29,WNW,296,0.0,0.0,38,0.00,,,0.00,Wunderground v.1.15,2013-02-18 16:00:00,
2013-02-18 11:15:00,43.4,19.5,30.29,WSW,238,0.0,0.0,38,0.00,,,0.00,Wunderground v.1.15,2013-02-18 16:15:00,
2013-02-18 11:20:00,44.0,21.2,30.29,WSW,246,0.0,0.0,40,0.00,,,0.00,Wunderground v.1.15,2013-02-18 16:20:00,
2013-02-18 11:30:00,44.9,20.2,30.28,SW,217,0.0,0.0,37,0.00,,,0.00,Wunderground v.1.15,2013-02-18 16:30:00,
2013-02-18 11:40:00,45.1,21.6,30.28,SW,220,1.0,1.0,39,0.00,,,0.00,Wunderground v.1.15,2013-02-18 16:40:00,
2013-02-18 11:55:00,46.1,21.2,30.27,SSW,200,3.0,5.0,37,0.00,,,0.00,Wunderground v.1.15,2013-02-18 16:55:00,
2013-02-18 12:01:00,46.1,20.6,30.27,West,263,3.0,3.0,36,0.00,,,0.00,Wunderground v.1.15,2013-02-18 17:01:00,
2013-02-18 12:10:00,46.5,22.2,30.26,SW,222,3.0,3.0,38,0.00,,,0.00,Wunderground v.1.15,2013-02-18 17:10:00,
2013-02-18 12:20:00,46.9,22.6,30.26,South,180,4.0,6.0,38,0.00,,,0.00,Wunderground v.1.15,2013-02-18 17:20:00,
2013-02-18 12:30:00,47.5,22.5,30.25,SW,214,6.0,7.0,37,0.00,,,0.00,Wunderground v.1.15,2013-02-18 17:30:00,
2013-02-18 12:35:00,47.8,24.0,30.25,SW,219,5.0,7.0,39,0.00,,,0.00,Wunderground v.1.15,2013-02-18 17:35:00,
2013-02-18 12:45:00,48.9,23.7,30.24,SW,218,2.0,4.0,37,0.00,,,0.00,Wunderground v.1.15,2013-02-18 17:45:00,
2013-02-18 12:55:00,49.6,23.7,30.24,SW,226,3.0,3.0,36,0.00,,,0.00,Wunderground v.1.15,2013-02-18 17:55:00,
2013-02-18 13:01:00,49.9,24.0,30.23,SSW,196,2.0,3.0,36,0.00,,,0.00,Wunderground v.1.15,2013-02-18 18:01:00,
2013-02-18 13:10:00,50.6,25.3,30.22,NW,314,3.0,8.0,37,0.00,,,0.00,Wunderground v.1.15,2013-02-18 18:10:00,
2013-02-18 13:20:00,50.9,25.5,30.22,SW,223,3.0,7.0,37,0.00,,,0.00,Wunderground v.1.15,2013-02-18 18:20:00,
2013-02-18 13:30:00,51.7,26.9,30.22,SW,232,1.0,1.0,38,0.00,,,0.00,Wunderground v.1.15,2013-02-18 18:30:00,
2013-02-18 13:40:00,52.3,26.8,30.21,South,175,1.0,1.0,37,0.00,,,0.00,Wunderground v.1.15,2013-02-18 18:40:00,
2013-02-18 13:50:00,51.8,25.0,30.21,WNW,289,4.0,6.0,35,0.00,,,0.00,Wunderground v.1.15,2013-02-18 18:50:00,
2013-02-18 14:01:00,52.5,25.6,30.20,SW,221,2.0,2.0,35,0.00,,,0.00,Wunderground v.1.15,2013-02-18 19:01:00,
2013-02-18 14:10:00,52.5,24.9,30.20,NW,317,3.0,3.0,34,0.00,,,0.00,Wunderground v.1.15,2013-02-18 19:10:00,
2013-02-18 14:20:00,52.6,25.7,30.19,South,181,4.0,4.0,35,0.00,,,0.00,Wunderground v.1.15,2013-02-18 19:20:00,
2013-02-18 14:30:00,53.0,27.4,30.19,SSW,207,1.0,1.0,37,0.00,,,0.00,Wunderground v.1.15,2013-02-18 19:30:00,
2013-02-18 14:40:00,53.4,27.1,30.19,West,278,0.0,5.0,36,0.00,,,0.00,Wunderground v.1.15,2013-02-18 19:40:00,
2013-02-18 14:50:00,53.3,26.3,30.18,NW,324,4.0,4.0,35,0.00,,,0.00,Wunderground v.1.15,2013-02-18 19:50:00,
2013-02-18 14:55:00,53.6,25.9,30.18,West,265,4.0,4.0,34,0.00,,,0.00,Wunderground v.1.15,2013-02-18 19:55:00,
2013-02-18 15:00:00,53.5,25.8,30.18,SSW,205,3.0,3.0,34,0.00,,,0.00,Wunderground v.1.15,2013-02-18 20:00:00,
2013-02-18 15:11:00,53.5,27.8,30.17,NNE,24,1.0,6.0,37,0.00,,,0.00,Wunderground v.1.15,2013-02-18 20:11:00,
2013-02-18 15:20:00,53.0,26.0,30.16,SSW,213,2.0,2.0,35,0.00,,,0.00,Wunderground v.1.15,2013-02-18 20:20:00,
2013-02-18 15:30:00,53.1,26.1,30.17,SW,229,3.0,3.0,35,0.00,,,0.00,Wunderground v.1.15,2013-02-18 20:30:00,
2013-02-18 15:40:00,53.1,26.8,30.17,West,263,1.0,1.0,36,0.00,,,0.00,Wunderground v.1.15,2013-02-18 20:40:00,
2013-02-18 15:45:00,53.3,26.3,30.17,SSW,195,0.0,1.0,35,0.00,,,0.00,Wunderground v.1.15,2013-02-18 20:45:00,
2013-02-18 15:55:00,53.0,26.7,30.17,SW,215,4.0,8.0,36,0.00,,,0.00,Wunderground v.1.15,2013-02-18 20:55:00,
2013-02-18 16:00:00,52.6,27.0,30.17,SSW,212,3.0,6.0,37,0.00,,,0.00,Wunderground v.1.15,2013-02-18 21:00:00,
2013-02-18 16:10:00,52.5,26.9,30.17,WSW,258,2.0,4.0,37,0.00,,,0.00,Wunderground v.1.15,2013-02-18 21:10:00,
2013-02-18 16:15:00,52.7,27.1,30.17,SW,214,2.0,4.0,37,0.00,,,0.00,Wunderground v.1.15,2013-02-18 21:15:00,
2013-02-18 16:25:00,52.4,26.9,30.16,West,263,3.0,6.0,37,0.00,,,0.00,Wunderground v.1.15,2013-02-18 21:25:00,
2013-02-18 16:35:00,52.1,27.9,30.16,SSW,200,3.0,4.0,39,0.00,,,0.00,Wunderground v.1.15,2013-02-18 21:35:00,
2013-02-18 16:45:00,52.1,26.6,30.16,SSW,208,3.0,5.0,37,0.00,,,0.00,Wunderground v.1.15,2013-02-18 21:45:00,
2013-02-18 16:55:00,51.8,27.0,30.17,WNW,294,4.0,5.0,38,0.00,,,0.00,Wunderground v.1.15,2013-02-18 21:55:00,
2013-02-18 17:00:00,51.8,27.0,30.17,SSW,204,2.0,2.0,38,0.00,,,0.00,Wunderground v.1.15,2013-02-18 22:00:00,
2013-02-18 17:10:00,51.7,26.9,30.16,SW,217,2.0,4.0,38,0.00,,,0.00,Wunderground v.1.15,2013-02-18 22:10:00,
2013-02-18 17:20:00,51.8,27.0,30.16,WNW,302,2.0,2.0,38,0.00,,,0.00,Wunderground v.1.15,2013-02-18 22:20:00,
2013-02-18 17:30:00,51.5,27.3,30.16,NNW,329,1.0,5.0,39,0.00,,,0.00,Wunderground v.1.15,2013-02-18 22:30:00,
2013-02-18 17:40:00,51.0,27.5,30.15,NW,316,1.0,1.0,40,0.00,,,0.00,Wunderground v.1.15,2013-02-18 22:40:00,
2013-02-18 17:50:00,50.5,26.4,30.15,SW,216,0.0,0.0,39,0.00,,,0.00,Wunderground v.1.15,2013-02-18 22:50:00,
2013-02-18 17:55:00,50.2,26.8,30.15,SW,216,0.0,0.0,40,0.00,,,0.00,Wunderground v.1.15,2013-02-18 22:55:00,
2013-02-18 18:05:00,49.6,26.8,30.15,SW,216,0.0,12.0,41,0.00,,,0.00,Wunderground v.1.15,2013-02-18 23:05:00,
2013-02-18 18:10:00,49.2,27.1,30.15,SW,217,0.0,12.0,42,0.00,,,0.00,Wunderground v.1.15,2013-02-18 23:10:00,
2013-02-18 18:20:00,48.3,26.8,30.15,SW,217,0.0,12.0,43,0.00,,,0.00,Wunderground v.1.15,2013-02-18 23:20:00,
2013-02-18 18:30:00,47.6,27.3,30.16,SW,217,0.0,12.0,45,0.00,,,0.00,Wunderground v.1.15,2013-02-18 23:30:00,
2013-02-18 18:40:00,46.9,27.2,30.16,SW,217,0.0,12.0,46,0.00,,,0.00,Wunderground v.1.15,2013-02-18 23:40:00,
2013-02-18 18:50:00,46.7,27.0,30.16,SW,217,0.0,12.0,46,0.00,,,0.00,Wunderground v.1.15,2013-02-18 23:50:00,
2013-02-18 19:00:00,46.2,27.1,30.16,SW,217,0.0,12.0,47,0.00,,,0.00,Wunderground v.1.15,2013-02-19 00:00:00,
2013-02-18 19:10:00,45.7,26.6,30.16,SW,215,0.0,12.0,47,0.00,,,0.00,Wunderground v.1.15,2013-02-19 00:10:00,
2013-02-18 19:20:00,45.4,26.8,30.16,SW,215,0.0,12.0,48,0.00,,,0.00,Wunderground v.1.15,2013-02-19 00:20:00,
2013-02-18 19:25:00,45.2,27.2,30.16,SW,214,0.0,12.0,49,0.00,,,0.00,Wunderground v.1.15,2013-02-19 00:25:00,
2013-02-18 19:35:00,44.7,27.2,30.16,SW,214,0.0,12.0,50,0.00,,,0.00,Wunderground v.1.15,2013-02-19 00:35:00,
2013-02-18 19:45:00,43.5,27.0,30.16,SW,214,0.0,12.0,52,0.00,,,0.00,Wunderground v.1.15,2013-02-19 00:45:00,
2013-02-18 19:55:00,42.7,27.2,30.15,SW,214,0.0,12.0,54,0.00,,,0.00,Wunderground v.1.15,2013-02-19 00:55:00,
2013-02-18 20:05:00,42.3,27.7,30.15,SW,214,0.0,12.0,56,0.00,,,0.00,Wunderground v.1.15,2013-02-19 01:05:00,
2013-02-18 20:10:00,41.8,27.7,30.15,SW,214,0.0,12.0,57,0.00,,,0.00,Wunderground v.1.15,2013-02-19 01:10:00,
2013-02-18 20:15:00,41.0,27.3,30.15,SW,214,0.0,12.0,58,0.00,,,0.00,Wunderground v.1.15,2013-02-19 01:15:00,
2013-02-18 20:25:00,39.4,27.5,30.14,SW,214,0.0,12.0,62,0.00,,,0.00,Wunderground v.1.15,2013-02-19 01:25:00,
2013-02-18 20:35:00,38.0,26.9,30.14,SW,214,0.0,12.0,64,0.00,,,0.00,Wunderground v.1.15,2013-02-19 01:35:00,
2013-02-18 20:45:00,37.1,26.4,30.14,SW,214,0.0,12.0,65,0.00,,,0.00,Wunderground v.1.15,2013-02-19 01:45:00,
2013-02-18 20:55:00,37.7,27.7,30.14,SSW,213,0.0,12.0,67,0.00,,,0.00,Wunderground v.1.15,2013-02-19 01:55:00,
2013-02-18 21:00:00,37.5,27.2,30.14,SSW,213,0.0,12.0,66,0.00,,,0.00,Wunderground v.1.15,2013-02-19 02:00:00,
2013-02-18 21:10:00,36.6,26.3,30.14,SSW,213,0.0,12.0,66,0.00,,,0.00,Wunderground v.1.15,2013-02-19 02:10:00,
2013-02-18 21:20:00,36.2,26.6,30.14,SSW,213,0.0,12.0,68,0.00,,,0.00,Wunderground v.1.15,2013-02-19 02:20:00,
2013-02-18 21:30:00,35.7,26.9,30.14,SSW,213,0.0,12.0,70,0.00,,,0.00,Wunderground v.1.15,2013-02-19 02:30:00,
2013-02-18 21:40:00,34.8,26.4,30.14,SSW,213,0.0,12.0,71,0.00,,,0.00,Wunderground v.1.15,2013-02-19 02:40:00,
2013-02-18 21:45:00,34.3,26.2,30.14,SSW,213,0.0,12.0,72,0.00,,,0.00,Wunderground v.1.15,2013-02-19 02:45:00,
2013-02-18 21:55:00,33.4,25.7,30.14,SSW,213,0.0,12.0,73,0.00,,,0.00,Wunderground v.1.15,2013-02-19 02:55:00,
2013-02-18 22:01:00,33.1,25.4,30.14,SSW,213,0.0,12.0,73,0.00,,,0.00,Wunderground v.1.15,2013-02-19 03:01:00,
2013-02-18 22:10:00,32.5,25.8,30.13,SSW,213,0.0,12.0,76,0.00,,,0.00,Wunderground v.1.15,2013-02-19 03:10:00,
2013-02-18 22:15:00,32.2,25.8,30.13,SSW,213,0.0,12.0,77,0.00,,,0.00,Wunderground v.1.15,2013-02-19 03:15:00,
2013-02-18 22:25:00,32.1,26.0,30.12,SSW,213,0.0,12.0,78,0.00,,,0.00,Wunderground v.1.15,2013-02-19 03:25:00,
2013-02-18 22:35:00,31.9,25.5,30.12,SSW,213,0.0,12.0,77,0.00,,,0.00,Wunderground v.1.15,2013-02-19 03:35:00,
2013-02-18 22:45:00,31.5,25.4,30.11,SSW,213,0.0,12.0,78,0.00,,,0.00,Wunderground v.1.15,2013-02-19 03:45:00,
2013-02-18 22:55:00,31.2,25.7,30.11,SW,215,0.0,12.0,80,0.00,,,0.00,Wunderground v.1.15,2013-02-19 03:55:00,
2013-02-18 23:05:00,30.7,25.3,30.10,SW,215,0.0,12.0,80,0.00,,,0.00,Wunderground v.1.15,2013-02-19 04:05:00,
2013-02-18 23:15:00,30.2,25.1,30.11,SW,215,0.0,12.0,81,0.00,,,0.00,Wunderground v.1.15,2013-02-19 04:15:00,
2013-02-18 23:20:00,30.0,24.9,30.11,SW,215,0.0,12.0,81,0.00,,,0.00,Wunderground v.1.15,2013-02-19 04:20:00,
2013-02-18 23:25:00,29.8,24.7,30.11,SW,215,0.0,12.0,81,0.00,,,0.00,Wunderground v.1.15,2013-02-19 04:25:00,
2013-02-18 23:35:00,29.6,25.1,30.12,SW,215,0.0,12.0,83,0.00,,,0.00,Wunderground v.1.15,2013-02-19 04:35:00,
2013-02-18 23:40:00,29.5,25.0,30.12,SW,235,0.0,12.0,83,0.00,,,0.00,Wunderground v.1.15,2013-02-19 04:40:00,
2013-02-18 23:50:00,29.5,25.0,30.12,SW,234,0.0,12.0,83,0.00,,,0.00,Wunderground v.1.15,2013-02-19 04:50:00,